When you browse on this site, cookies collect data to enhance your experience and personalize the content and advertising you see.
Visit our Privacy Policy to learn more. By continuing to use the site, you agree to this use of cookies and data.
  • In France
  • List of Countries
  • For 7 days
  • Water Temperature
  • Satellite Maps
  • Weather Map
  • Weather Widgets
  • user-avatar
    Login

    Hourly Weather La Rioja

    Today, 19 January, Saturday

    Time Temperature Precipitation Wind Pressure Humidity
    00:00 +23°C° 0 mm 2 mps 719 mmHg 59%
    01:00 +23°C° 0 mm 2 mps 719 mmHg 62%
    02:00 +21°C° 0 mm 2 mps 719 mmHg 70%
    03:00 +20°C° 0 mm 2 mps 719 mmHg 71%
    04:00 +20°C° 0 mm 2 mps 719 mmHg 73%
    05:00 +20°C° 0 mm 1 mps 718 mmHg 75%
    06:00 +20°C° 0 mm 2 mps 719 mmHg 73%
    07:00 +21°C° 0 mm 2 mps 719 mmHg 70%
    08:00 +21°C° 0 mm 2 mps 719 mmHg 68%
    09:00 +24°C° 0 mm 2 mps 718 mmHg 63%
    10:00 +25°C° 0 mm 3 mps 718 mmHg 59%
    11:00 +26°C° 0 mm 3 mps 718 mmHg 54%
    12:00 +28°C° 0 mm 3 mps 717 mmHg 51%
    13:00 +29°C° 0 mm 4 mps 716 mmHg 47%
    14:00 +30°C° 0 mm 4 mps 716 mmHg 44%
    15:00 +30°C° 0 mm 4 mps 715 mmHg 43%
    16:00 +32°C° 0 mm 4 mps 715 mmHg 43%
    17:00 +32°C° 0 mm 4 mps 714 mmHg 42%
    18:00 +30°C° 0 mm 4 mps 715 mmHg 46%
    19:00 +29°C° 0 mm 4 mps 715 mmHg 50%
    20:00 +28°C° 0 mm 4 mps 715 mmHg 53%
    21:00 +27°C° 0 mm 3 mps 716 mmHg 56%
    22:00 +26°C° 0 mm 3 mps 716 mmHg 59%
    23:00 +25°C° 0 mm 2 mps 717 mmHg 62%

    Tomorrow, 20 January, Sunday

    Time Temperature Precipitation Wind Pressure Humidity
    00:00 +24°C° 0 mm 2 mps 716 mmHg 64%
    01:00 +24°C° 0 mm 2 mps 716 mmHg 66%
    02:00 +23°C° 0 mm 2 mps 716 mmHg 69%
    03:00 +23°C° 0 mm 2 mps 715 mmHg 70%
    04:00 +21°C° 0 mm 2 mps 715 mmHg 72%
    05:00 +22°C° 0 mm 1 mps 715 mmHg 74%
    06:00 +22°C° 0 mm 1 mps 715 mmHg 72%
    07:00 +23°C° 0 mm 2 mps 715 mmHg 70%
    08:00 +23°C° 0 mm 2 mps 715 mmHg 68%
    09:00 +25°C° 0 mm 2 mps 714 mmHg 63%
    10:00 +27°C° 0 mm 2 mps 714 mmHg 58%
    11:00 +28°C° 0 mm 3 mps 714 mmHg 53%
    12:00 +30°C° 0 mm 3 mps 713 mmHg 50%
    13:00 +31°C° 0 mm 3 mps 712 mmHg 47%
    14:00 +33°C° 0 mm 4 mps 711 mmHg 43%
    15:00 +34°C° 0 mm 4 mps 711 mmHg 42%
    16:00 +34°C° 0 mm 4 mps 710 mmHg 41%
    17:00 +34°C° 0 mm 4 mps 710 mmHg 40%
    18:00 +33°C° 0 mm 4 mps 710 mmHg 44%
    19:00 +31°C° 0 mm 3 mps 710 mmHg 47%
    20:00 +30°C° 0 mm 3 mps 711 mmHg 50%
    21:00 +29°C° 0 mm 3 mps 711 mmHg 54%
    22:00 +29°C° 0 mm 2 mps 712 mmHg 58%
    23:00 +28°C° 0 mm 2 mps 713 mmHg 61%

    Day after tomorrow, 21 January, Monday

    Time Temperature Precipitation Wind Pressure Humidity
    00:00 +27°C° 0 mm 2 mps 712 mmHg 64%
    01:00 +27°C° 0 mm 2 mps 712 mmHg 66%
    02:00 +26°C° 0 mm 2 mps 712 mmHg 69%
    03:00 +25°C° 0 mm 2 mps 712 mmHg 71%
    04:00 +25°C° 0 mm 2 mps 712 mmHg 73%
    05:00 +24°C° 0 mm 2 mps 712 mmHg 76%
    06:00 +25°C° 0 mm 2 mps 713 mmHg 74%
    07:00 +25°C° 0 mm 3 mps 713 mmHg 72%
    08:00 +26°C° 0 mm 3 mps 714 mmHg 71%
    09:00 +27°C° 0 mm 3 mps 714 mmHg 64%
    10:00 +29°C° 0 mm 4 mps 714 mmHg 58%
    11:00 +32°C° 0 mm 4 mps 714 mmHg 51%
    12:00 +33°C° 0 mm 4 mps 714 mmHg 48%
    13:00 +34°C° 0 mm 4 mps 713 mmHg 44%
    14:00 +35°C° 0 mm 3 mps 713 mmHg 41%
    15:00 +35°C° 0 mm 3 mps 712 mmHg 40%
    16:00 +36°C° 0 mm 3 mps 711 mmHg 39%
    17:00 +36°C° 0 mm 3 mps 711 mmHg 37%
    18:00 +35°C° 0 mm 2 mps 711 mmHg 40%
    19:00 +33°C° 0 mm 1 mps 712 mmHg 42%
    20:00 +32°C° 0 mm 1 mps 712 mmHg 45%
    21:00 +31°C° 0 mm 1 mps 712 mmHg 48%
    22:00 +30°C° 0 mm 1 mps 713 mmHg 50%
    23:00 +30°C° 0 mm 1 mps 713 mmHg 53%

    22 January, Tuesday

    Time Temperature Precipitation Wind Pressure Humidity
    00:00 +29°C° 0 mm 1 mps 712 mmHg 56%
    01:00 +28°C° 0 mm 1 mps 712 mmHg 59%
    02:00 +28°C° 0 mm 1 mps 711 mmHg 62%
    03:00 +27°C° 0 mm 1 mps 711 mmHg 64%
    04:00 +25°C° 0 mm 0 mps 711 mmHg 67%
    05:00 +24°C° 0 mm 0 mps 710 mmHg 69%
    06:00 +28°C° 0 mm 1 mps 711 mmHg 65%
    07:00 +29°C° 0 mm 1 mps 711 mmHg 61%
    08:00 +30°C° 0 mm 1 mps 711 mmHg 58%
    09:00 +31°C° 0 mm 2 mps 711 mmHg 53%
    10:00 +34°C° 0 mm 2 mps 711 mmHg 49%
    11:00 +35°C° 0 mm 3 mps 710 mmHg 45%
    12:00 +36°C° 0 mm 3 mps 710 mmHg 42%
    13:00 +37°C° 0 mm 3 mps 709 mmHg 39%
    14:00 +39°C° 0 mm 3 mps 709 mmHg 36%
    15:00 +39°C° 0 mm 3 mps 708 mmHg 35%
    16:00 +39°C° 0 mm 3 mps 708 mmHg 34%
    17:00 +40°C° 0 mm 3 mps 708 mmHg 33%
    18:00 +39°C° 0 mm 2 mps 709 mmHg 35%
    19:00 +38°C° 0 mm 2 mps 709 mmHg 37%
    20:00 +36°C° 0 mm 2 mps 710 mmHg 39%
    21:00 +35°C° 0.2 mm 2 mps 711 mmHg 42%
    22:00 +34°C° 0.2 mm 1 mps 711 mmHg 46%
    23:00 +33°C° 0.2 mm 1 mps 712 mmHg 49%

    23 January, Wednesday

    Time Temperature Precipitation Wind Pressure Humidity
    00:00 +32°C° 0.2 mm 1 mps 712 mmHg 50%
    01:00 +32°C° 0.2 mm 2 mps 712 mmHg 50%
    02:00 +31°C° 0.2 mm 2 mps 711 mmHg 51%
    03:00 +31°C° 0 mm 2 mps 711 mmHg 51%
    04:00 +31°C° 0 mm 2 mps 712 mmHg 52%
    05:00 +30°C° 0 mm 2 mps 712 mmHg 52%
    06:00 +32°C° 0.1 mm 2 mps 712 mmHg 49%
    07:00 +34°C° 0.1 mm 2 mps 713 mmHg 45%
    08:00 +35°C° 0.1 mm 3 mps 714 mmHg 42%
    09:00 +36°C° 0 mm 3 mps 713 mmHg 40%
    10:00 +37°C° 0 mm 3 mps 713 mmHg 38%
    11:00 +38°C° 0 mm 3 mps 713 mmHg 36%
    12:00 +40°C° 0 mm 4 mps 712 mmHg 35%
    13:00 +41°C° 0 mm 4 mps 712 mmHg 34%
    14:00 +42°C° 0 mm 4 mps 711 mmHg 33%
    15:00 +42°C° 0.1 mm 3 mps 710 mmHg 33%
    16:00 +42°C° 0.1 mm 3 mps 710 mmHg 33%
    17:00 +42°C° 0.1 mm 3 mps 710 mmHg 33%
    18:00 +40°C° 0.4 mm 3 mps 710 mmHg 35%
    19:00 +38°C° 0.4 mm 3 mps 711 mmHg 38%
    20:00 +37°C° 0.4 mm 3 mps 711 mmHg 41%
    21:00 +36°C° 0.5 mm 2 mps 711 mmHg 43%
    22:00 +35°C° 0.5 mm 2 mps 712 mmHg 46%
    23:00 +34°C° 0.5 mm 2 mps 712 mmHg 49%

    24 January, Thursday

    Time Temperature Precipitation Wind Pressure Humidity
    00:00 +34°C° 0.3 mm 2 mps 711 mmHg 50%
    01:00 +32°C° 0.3 mm 2 mps 711 mmHg 52%
    02:00 +31°C° 0.3 mm 2 mps 710 mmHg 53%
    03:00 +31°C° 0 mm 1 mps 710 mmHg 53%
    04:00 +31°C° 0 mm 1 mps 710 mmHg 53%
    05:00 +31°C° 0 mm 1 mps 710 mmHg 53%
    06:00 +31°C° 0 mm 1 mps 710 mmHg 51%
    07:00 +32°C° 0 mm 1 mps 710 mmHg 49%
    08:00 +33°C° 0 mm 1 mps 710 mmHg 47%
    09:00 +34°C° 0 mm 1 mps 710 mmHg 44%
    10:00 +36°C° 0 mm 2 mps 710 mmHg 41%
    11:00 +38°C° 0 mm 2 mps 710 mmHg 38%
    12:00 +39°C° 0 mm 3 mps 709 mmHg 35%
    13:00 +40°C° 0 mm 3 mps 708 mmHg 32%
    14:00 +42°C° 0 mm 4 mps 707 mmHg 30%
    15:00 +42°C° 0 mm 4 mps 707 mmHg 29%
    16:00 +43°C° 0 mm 4 mps 706 mmHg 28%
    17:00 +43°C° 0 mm 4 mps 706 mmHg 27%
    18:00 +42°C° 0 mm 3 mps 706 mmHg 31%
    19:00 +39°C° 0 mm 2 mps 707 mmHg 35%
    20:00 +38°C° 0 mm 2 mps 707 mmHg 39%
    21:00 +37°C° 0 mm 2 mps 708 mmHg 41%
    22:00 +35°C° 0 mm 1 mps 708 mmHg 42%
    23:00 +34°C° 0 mm 1 mps 709 mmHg 44%
    Show more